リニア彗星

252P/LINEAR (2021)

English version
Home page
Updated on November 15, 2021

---------------------------------------------------------------------

・ プロフィール

・ 写真集

・ 軌道要素

Epoch 2021 July 5.0 TT = JDT 2459400.5
T 2021 July 11.29817 TT                                 Rudenko
q   1.0004987            (2000.0)            P               Q
n   0.18503578     Peri.  343.30132     -0.99406572     -0.10322896
a   3.0499934      Node   190.94595     +0.10835591     -0.96750240
e   0.6719669      Incl.   10.40977     -0.00960976     -0.23083087
P   5.33
From 1064 observations 2016 Apr. 5-2021 Aug. 29, mean residual 0".4.
     Nongravitational parameters A1 = +0.84, A2 = -0.7712.

・ 星図

・ 光度変化

        m1 = 10.0 + 5 logΔ + 30.0 log r(t - 15)

        ※ 灰色の曲線は、m1 = 18.0 + 5 logΔ + 10.0 log r の光度曲線です。

---------------------------------------------------------------------

軌道要素はM.P.E.C. 2021-S45に掲載されたものです。
星図はステラナビゲータ Ver.10 (アストロアーツ) で作成したものです。
光度グラフはComet for Windowsで作成したものです。

---------------------------------------------------------------------

Copyright(C) Seiichi Yoshida (comet@aerith.net). All rights reserved.